Flag for New Zealand Weather past 2 weeks in Auckland, New Zealand

Now
68 °F

Partly cloudy.


Feels Like: 68 °F
Forecast: 63 / 76 °F
Wind: 7 mph from South

Location: Auckland Airport

Current Time: Jan 26, 2015 at 10:19:53 PM

Latest Report: Jan 26, 2015 at 10:00 PM


Visibility: N/A

Pressure: 29.95 "Hg

Humidity: 83%

Dew point: 63 °F

Location of AucklandLocation

Historic Weather in Auckland — Graph

°F

Auckland temperature yesterday

Maximum temperature yesterday: 81 °F (at 3:30 PM)
Minimum temperature yesterday: 61 °F (at 6:00 AM)
Average temperature yesterday: 71 °F

Past Weeks' High & Low Weather Summary

 TemperatureHumidityPressure
High81 °F (Jan 25, 3:30 PM)100% (Jan 17, 8:00 PM)30.18 "Hg (Jan 17, 8:00 PM)
Low57 °F (Jan 22, 6:00 AM)41% (Jan 21, 4:30 PM)29.71 "Hg (Jan 17, 6:30 PM)
Average70 °F72%29.96 "Hg
* Reported Jan 11 9:00 PM — Jan 26 9:00 PM, Auckland, Weather by CustomWeather, © 2014

Note: Actual official high and low records may vary slightly from our data, if they occured in-between our weather recording intervals... More about our weather records

Advertising

Auckland weather history for previous 24 hours

 ConditionsComfort  
Time TempWeatherWind HumidityBarometerVisibility
9:00 PM
Jan 26
70 °FMostly cloudy.5 mph73%29.92 "HgN/A
8:30 PM72 °FMostly cloudy.2 mph69%29.92 "HgN/A
8:00 PM73 °FMostly cloudy.3 mph61%29.92 "HgN/A
7:30 PM73 °FPartly sunny.3 mph57%29.92 "HgN/A
7:00 PM73 °FOvercast.5 mph53%29.92 "HgN/A
6:30 PM77 °FPartly sunny.8 mph44%29.92 "HgN/A
6:00 PM75 °FOvercast.3 mph47%29.92 "HgN/A
5:30 PM77 °FPartly sunny.9 mph44%29.92 "HgN/A
5:00 PM77 °FPassing clouds.7 mph44%29.95 "HgN/A
4:30 PM79 °FWarm.7 mph42%29.95 "HgN/A
4:00 PM77 °FPassing clouds.9 mph44%29.95 "HgN/A
3:30 PM77 °FScattered clouds.10 mph47%29.98 "HgN/A
3:00 PM75 °FPartly sunny.9 mph50%29.98 "HgN/A
2:30 PM77 °FPartly sunny.12 mph47%29.98 "HgN/A
2:00 PM73 °FOvercast.6 mph50%29.98 "HgN/A
1:30 PM73 °FMostly cloudy.3 mph50%30.01 "HgN/A
1:00 PM73 °FPartly sunny.3 mph50%30.01 "HgN/A
12:30 PM73 °FPartly sunny.3 mph50%30.01 "HgN/A
12:00 PM73 °FPartly sunny.3 mph53%30.04 "HgN/A
11:30 AM72 °FOvercast.8 mph57%30.04 "HgN/A
11:00 AM72 °FMore clouds than sun.9 mph57%30.04 "HgN/A
10:30 AM70 °FMostly cloudy.8 mph60%30.04 "HgN/A
9:30 AM68 °FPartly sunny.3 mph73%30.07 "HgN/A
9:00 AM66 °FMostly cloudy.5 mph78%30.07 "HgN/A
8:30 AM66 °FMore clouds than sun.5 mph78%30.07 "HgN/A
8:00 AM64 °FPartly sunny.6 mph83%30.07 "HgN/A
7:30 AM64 °FMild.6 mph83%30.07 "HgN/A
7:00 AM64 °FScattered clouds.5 mph83%30.07 "HgN/A
6:30 AM64 °FOvercast.5 mph83%30.07 "HgN/A
6:00 AM64 °FPassing clouds.7 mph83%30.07 "HgN/A
5:30 AM66 °FOvercast.5 mph73%30.07 "HgN/A
5:00 AM66 °FOvercast.6 mph78%30.07 "HgN/A
4:30 AM66 °FMostly cloudy.5 mph78%30.07 "HgN/A
4:00 AM64 °FOvercast.3 mph78%30.07 "HgN/A
3:30 AM64 °FPassing clouds.3 mph83%30.09 "HgN/A
3:00 AM63 °FPassing clouds.5 mph83%30.09 "HgN/A
2:30 AM64 °FMild.6 mph78%30.09 "HgN/A
2:00 AM64 °FPassing clouds.7 mph78%30.12 "HgN/A
1:30 AM64 °FMild.6 mph83%30.12 "HgN/A
1:00 AM64 °FMild.8 mph78%30.12 "HgN/A
12:30 AM64 °FMild.7 mph78%30.12 "HgN/A
12:00 AM64 °FPassing clouds.8 mph83%30.12 "HgN/A
11:30 PM
Jan 25
66 °FMild.10 mph78%30.12 "HgN/A
11:00 PM66 °FMild.8 mph78%30.12 "HgN/A
10:30 PM68 °FMild.8 mph73%30.12 "HgN/A
10:00 PM68 °FMild.9 mph73%30.12 "HgN/A
Weather by CustomWeather, © 2014

See weather overviewHow to use our weather pages